When you browse on this site, cookies collect data to enhance your experience and personalize the content and advertising you see.
Visit our Privacy Policy to learn more. By continuing to use the site, you agree to this use of cookies and data.
  • In Österreich
  • Länderverzeichnis
  • Für 7 Tage
  • Wassertemperatur
  • Satellitenkarten
  • Wetterkarte
  • News
  • Widgets
  • user-avatar
    Anmelden

    Stündliche Wetter Kashtelu-Branku

    Heute, 21 Mai, Dienstag

    Zeit Temperatur Niederschläge Wind Luftdruck Luftfeuchtigkeit
    00:00 +13°C° 0 mm 2 m/S 729 mmHg 69%
    01:00 +12°C° 0 mm 1 m/S 729 mmHg 70%
    02:00 +12°C° 0 mm 1 m/S 729 mmHg 72%
    03:00 +11°C° 0 mm 1 m/S 729 mmHg 73%
    04:00 +12°C° 0 mm 1 m/S 729 mmHg 74%
    05:00 +12°C° 0 mm 1 m/S 729 mmHg 74%
    06:00 +13°C° 0 mm 1 m/S 729 mmHg 74%
    07:00 +15°C° 0 mm 1 m/S 730 mmHg 65%
    08:00 +17°C° 0 mm 0 m/S 730 mmHg 56%
    09:00 +20°C° 0 mm 0 m/S 730 mmHg 47%
    10:00 +22°C° 0 mm 0 m/S 730 mmHg 43%
    11:00 +24°C° 0 mm 0 m/S 730 mmHg 38%
    12:00 +26°C° 0 mm 0 m/S 730 mmHg 34%
    13:00 +28°C° 0 mm 1 m/S 730 mmHg 34%
    14:00 +27°C° 0 mm 1 m/S 730 mmHg 34%
    15:00 +27°C° 0 mm 2 m/S 729 mmHg 34%
    16:00 +26°C° 0 mm 2 m/S 729 mmHg 36%
    17:00 +26°C° 0 mm 2 m/S 729 mmHg 39%
    18:00 +25°C° 0 mm 3 m/S 729 mmHg 42%
    19:00 +23°C° 0 mm 2 m/S 729 mmHg 51%
    20:00 +20°C° 0 mm 2 m/S 729 mmHg 60%
    21:00 +18°C° 0 mm 2 m/S 730 mmHg 70%
    22:00 +17°C° 0 mm 2 m/S 730 mmHg 73%
    23:00 +17°C° 0 mm 2 m/S 730 mmHg 77%

    Morgen, 22 Mai, Mittwoch

    Zeit Temperatur Niederschläge Wind Luftdruck Luftfeuchtigkeit
    00:00 +16°C° 0 mm 1 m/S 730 mmHg 81%
    01:00 +15°C° 0 mm 1 m/S 730 mmHg 81%
    02:00 +15°C° 0 mm 1 m/S 730 mmHg 82%
    03:00 +15°C° 0 mm 1 m/S 730 mmHg 83%
    04:00 +15°C° 0 mm 1 m/S 730 mmHg 82%
    05:00 +15°C° 0 mm 1 m/S 730 mmHg 80%
    06:00 +14°C° 0 mm 0 m/S 730 mmHg 79%
    07:00 +17°C° 0 mm 0 m/S 731 mmHg 68%
    08:00 +21°C° 0 mm 1 m/S 731 mmHg 57%
    09:00 +24°C° 0 mm 1 m/S 731 mmHg 46%
    10:00 +26°C° 0 mm 1 m/S 731 mmHg 42%
    11:00 +27°C° 0 mm 1 m/S 732 mmHg 37%
    12:00 +29°C° 0 mm 2 m/S 732 mmHg 32%
    13:00 +29°C° 0 mm 2 m/S 731 mmHg 31%
    14:00 +30°C° 0 mm 2 m/S 731 mmHg 29%
    15:00 +30°C° 0 mm 2 m/S 731 mmHg 27%
    16:00 +29°C° 0 mm 2 m/S 731 mmHg 31%
    17:00 +28°C° 0 mm 3 m/S 731 mmHg 35%
    18:00 +27°C° 0 mm 3 m/S 730 mmHg 38%
    19:00 +25°C° 0 mm 3 m/S 731 mmHg 47%
    20:00 +23°C° 0 mm 2 m/S 731 mmHg 55%
    21:00 +19°C° 0 mm 2 m/S 731 mmHg 64%
    22:00 +18°C° 0 mm 2 m/S 731 mmHg 67%
    23:00 +17°C° 0 mm 2 m/S 732 mmHg 69%

    übermorgen, 23 Mai, Donnerstag

    Zeit Temperatur Niederschläge Wind Luftdruck Luftfeuchtigkeit
    00:00 +18°C° 0 mm 1 m/S 732 mmHg 72%
    01:00 +16°C° 0 mm 1 m/S 731 mmHg 73%
    02:00 +16°C° 0 mm 1 m/S 731 mmHg 74%
    03:00 +15°C° 0 mm 1 m/S 731 mmHg 76%
    04:00 +15°C° 0 mm 1 m/S 731 mmHg 75%
    05:00 +15°C° 0 mm 1 m/S 731 mmHg 75%
    06:00 +15°C° 0 mm 1 m/S 731 mmHg 74%
    07:00 +19°C° 0 mm 1 m/S 731 mmHg 64%
    08:00 +22°C° 0 mm 1 m/S 732 mmHg 54%
    09:00 +25°C° 0 mm 1 m/S 732 mmHg 44%
    10:00 +26°C° 0 mm 1 m/S 732 mmHg 39%
    11:00 +28°C° 0 mm 1 m/S 732 mmHg 34%
    12:00 +30°C° 0 mm 1 m/S 732 mmHg 28%
    13:00 +30°C° 0 mm 2 m/S 732 mmHg 27%
    14:00 +30°C° 0 mm 3 m/S 731 mmHg 27%
    15:00 +30°C° 0 mm 4 m/S 731 mmHg 26%
    16:00 +29°C° 0 mm 4 m/S 731 mmHg 34%
    17:00 +27°C° 0 mm 4 m/S 730 mmHg 41%
    18:00 +26°C° 0 mm 5 m/S 730 mmHg 49%
    19:00 +23°C° 0 mm 4 m/S 730 mmHg 56%
    20:00 +20°C° 0 mm 3 m/S 731 mmHg 64%
    21:00 +18°C° 0 mm 2 m/S 731 mmHg 71%
    22:00 +18°C° 0 mm 2 m/S 731 mmHg 72%
    23:00 +17°C° 0 mm 2 m/S 731 mmHg 74%

    24 Mai, Freitag

    Zeit Temperatur Niederschläge Wind Luftdruck Luftfeuchtigkeit
    00:00 +16°C° 0 mm 2 m/S 731 mmHg 75%
    01:00 +15°C° 0 mm 2 m/S 730 mmHg 76%
    02:00 +15°C° 0 mm 2 m/S 730 mmHg 76%
    03:00 +15°C° 0 mm 2 m/S 730 mmHg 77%
    04:00 +15°C° 0 mm 2 m/S 730 mmHg 75%
    05:00 +15°C° 0 mm 2 m/S 730 mmHg 73%
    06:00 +15°C° 0 mm 2 m/S 729 mmHg 71%
    07:00 +17°C° 0 mm 3 m/S 730 mmHg 63%
    08:00 +19°C° 0 mm 4 m/S 730 mmHg 55%
    09:00 +22°C° 0 mm 4 m/S 730 mmHg 47%
    10:00 +23°C° 0 mm 5 m/S 730 mmHg 40%
    11:00 +26°C° 0 mm 5 m/S 730 mmHg 33%
    12:00 +27°C° 0 mm 5 m/S 730 mmHg 26%
    13:00 +28°C° 0 mm 5 m/S 729 mmHg 25%
    14:00 +28°C° 0 mm 5 m/S 729 mmHg 23%
    15:00 +29°C° 0 mm 5 m/S 728 mmHg 21%
    16:00 +28°C° 0 mm 5 m/S 728 mmHg 23%
    17:00 +28°C° 0 mm 4 m/S 728 mmHg 25%
    18:00 +27°C° 0 mm 4 m/S 728 mmHg 26%
    19:00 +25°C° 0 mm 4 m/S 729 mmHg 31%
    20:00 +22°C° 0 mm 3 m/S 729 mmHg 36%
    21:00 +20°C° 0 mm 3 m/S 729 mmHg 40%
    22:00 +19°C° 0 mm 3 m/S 729 mmHg 44%
    23:00 +18°C° 0 mm 3 m/S 730 mmHg 47%

    25 Mai, Samstag

    Zeit Temperatur Niederschläge Wind Luftdruck Luftfeuchtigkeit
    00:00 +17°C° 0 mm 3 m/S 730 mmHg 51%
    01:00 +16°C° 0 mm 3 m/S 730 mmHg 54%
    02:00 +14°C° 0 mm 3 m/S 730 mmHg 58%
    03:00 +14°C° 0 mm 3 m/S 730 mmHg 62%
    04:00 +13°C° 0 mm 3 m/S 730 mmHg 62%
    05:00 +13°C° 0 mm 3 m/S 730 mmHg 63%
    06:00 +13°C° 0 mm 3 m/S 730 mmHg 63%
    07:00 +16°C° 0 mm 3 m/S 731 mmHg 57%
    08:00 +18°C° 0 mm 4 m/S 731 mmHg 50%
    09:00 +21°C° 0 mm 4 m/S 731 mmHg 43%
    10:00 +22°C° 0 mm 4 m/S 731 mmHg 38%
    11:00 +25°C° 0 mm 4 m/S 731 mmHg 33%
    12:00 +27°C° 0 mm 4 m/S 730 mmHg 28%
    13:00 +27°C° 0 mm 5 m/S 730 mmHg 27%
    14:00 +28°C° 0 mm 5 m/S 730 mmHg 26%
    15:00 +28°C° 0 mm 5 m/S 729 mmHg 25%
    16:00 +28°C° 0 mm 5 m/S 729 mmHg 26%
    17:00 +27°C° 0 mm 5 m/S 729 mmHg 28%
    18:00 +26°C° 0 mm 5 m/S 730 mmHg 29%
    19:00 +23°C° 0 mm 4 m/S 730 mmHg 35%
    20:00 +21°C° 0 mm 3 m/S 731 mmHg 41%
    21:00 +19°C° 0 mm 2 m/S 731 mmHg 47%
    22:00 +18°C° 0 mm 3 m/S 731 mmHg 49%
    23:00 +17°C° 0 mm 3 m/S 732 mmHg 52%

    26 Mai, Sonntag

    Zeit Temperatur Niederschläge Wind Luftdruck Luftfeuchtigkeit
    00:00 +16°C° 0 mm 3 m/S 732 mmHg 54%
    01:00 +16°C° 0 mm 3 m/S 732 mmHg 57%
    02:00 +14°C° 0 mm 3 m/S 732 mmHg 60%
    03:00 +14°C° 0 mm 2 m/S 732 mmHg 63%
    04:00 +14°C° 0 mm 2 m/S 732 mmHg 64%
    05:00 +14°C° 0 mm 2 m/S 732 mmHg 66%
    06:00 +13°C° 0 mm 2 m/S 732 mmHg 67%
    07:00 +16°C° 0 mm 2 m/S 732 mmHg 60%
    08:00 +18°C° 0 mm 2 m/S 732 mmHg 52%
    09:00 +21°C° 0 mm 3 m/S 733 mmHg 44%
    10:00 +24°C° 0 mm 3 m/S 733 mmHg 40%
    11:00 +25°C° 0 mm 3 m/S 732 mmHg 35%
    12:00 +27°C° 0 mm 2 m/S 732 mmHg 30%
    13:00 +28°C° 0 mm 2 m/S 732 mmHg 28%
    14:00 +29°C° 0 mm 2 m/S 731 mmHg 26%
    15:00 +30°C° 0 mm 2 m/S 731 mmHg 24%
    16:00 +30°C° 0 mm 2 m/S 731 mmHg 25%
    17:00 +30°C° 0 mm 3 m/S 730 mmHg 26%
    18:00 +29°C° 0 mm 3 m/S 730 mmHg 27%
    19:00 +27°C° 0 mm 3 m/S 730 mmHg 32%
    20:00 +25°C° 0 mm 3 m/S 731 mmHg 37%
    21:00 +21°C° 0 mm 3 m/S 731 mmHg 41%
    22:00 +20°C° 0 mm 2 m/S 731 mmHg 44%
    23:00 +20°C° 0 mm 2 m/S 731 mmHg 47%
    Mehr zeigen